Gwinner, ND

2:33 PM CDT on September 20, 2017 (GMT -0500)
Gwinner-melroe

Weather History for KGWR - October, 2011

Change the Weather History Date:

Sunday, October 23, 2011

  Actual Average (KP67) Record (KP67)
Temperature  
Mean Temperature 49 °F -  
Max Temperature 59 °F 49 °F 52 °F (1996)
Min Temperature 39 °F 29 °F 21 °F (1996)
Degree Days  
Heating Degree Days 16    
Moisture  
Dew Point 39 °F    
Average Humidity 71    
Maximum Humidity 93    
Minimum Humidity 45    
Precipitation  
Precipitation 0.00 in - - ()
Sea Level Pressure  
Sea Level Pressure 29.86 in    
Wind  
Wind Speed 9 mph (West)    
Max Wind Speed 13 mph    
Max Gust Speed 16 mph    
Visibility 10 miles    
Events      
Averages and records for this station are not official NWS values.
T = Trace of Precipitation, MM = Missing Value Source: NWS Daily Summary

Daily Weather History Graph

Daily Weather History Graph

Search for Another Location

Airport or City:

Trip Planner

Search our weather history database for the weather conditions in past years. The results will help you decide how hot, cold, wet, or windy it might be!

Date:

Astronomy

Oct. 23, 2011 Rise Set
Actual Time 7:58 AM CDT 6:30 PM CDT
Civil Twilight 7:27 AM CDT 7:01 PM CDT
Nautical Twilight 6:52 AM CDT 7:36 PM CDT
Astronomical Twilight 6:18 AM CDT 8:10 PM CDT
Moon 3:55 AM CDT (10/23) 4:31 PM CDT (10/23)
Length of Visible Light 11h 33m
Length of Day
10h 32m
Waning Crescent, 14% of the Moon is Illuminated
Oct 23
Waning Crescent
Oct 26
New
Nov 2
First Quarter
Nov 10
Full
Nov 18
Last Quarter

Hourly Weather History & Observations

Time (CDT) Temp. Windchill Dew Point Humidity Pressure Visibility Wind Dir Wind Speed Gust Speed Precip Events Conditions
12:15 AM 48.2 °F - 44.6 °F 87% 29.83 in 10.0 mi SW 10.4 mph - 0.00 in   Clear
12:35 AM 48.2 °F - 44.6 °F 87% 29.83 in 10.0 mi SW 12.7 mph - 0.00 in   Clear
12:55 AM 48.2 °F - 42.8 °F 82% 29.82 in 10.0 mi SW 11.5 mph - 0.00 in   Clear
1:15 AM 48.2 °F - 42.8 °F 82% 29.82 in 10.0 mi SW 10.4 mph - 0.00 in   Clear
1:35 AM 48.2 °F - 42.8 °F 82% 29.82 in 10.0 mi SW 10.4 mph - 0.00 in   Clear
1:55 AM 46.4 °F 41.1 °F 42.8 °F 87% 29.81 in 10.0 mi SSW 11.5 mph - 0.00 in   Clear
2:15 AM 46.4 °F 41.9 °F 42.8 °F 87% 29.81 in 10.0 mi SW 9.2 mph - 0.00 in   Clear
2:35 AM 44.6 °F 38.8 °F 42.8 °F 93% 29.81 in 10.0 mi SW 11.5 mph - 0.00 in   Clear
2:55 AM 44.6 °F 39.7 °F 41.0 °F 87% 29.82 in 10.0 mi WSW 9.2 mph - 0.00 in   Clear
3:15 AM 44.6 °F 40.2 °F 41.0 °F 87% 29.81 in 10.0 mi SW 8.1 mph - 0.00 in   Clear
3:55 AM 42.8 °F 37.5 °F 39.2 °F 87% 29.81 in 10.0 mi SSW 9.2 mph - 0.00 in   Clear
4:15 AM 42.8 °F 38.0 °F 39.2 °F 87% 29.81 in 10.0 mi SW 8.1 mph - 0.00 in   Clear
4:55 AM 42.8 °F 38.0 °F 39.2 °F 87% 29.82 in 10.0 mi WSW 8.1 mph - 0.00 in   Clear
5:15 AM 42.8 °F 37.5 °F 39.2 °F 87% 29.81 in 10.0 mi SW 9.2 mph - 0.00 in   Partly Cloudy
5:35 AM 42.8 °F 36.6 °F 37.4 °F 81% 29.83 in 10.0 mi West 11.5 mph - 0.00 in   Mostly Cloudy
5:55 AM 44.6 °F 38.8 °F 37.4 °F 76% 29.83 in 10.0 mi West 11.5 mph - 0.00 in   Overcast
6:15 AM 44.6 °F 39.7 °F 37.4 °F 76% 29.84 in 10.0 mi West 9.2 mph 16.1 mph 0.00 in   Scattered Clouds
6:35 AM 46.4 °F 40.7 °F 39.2 °F 76% 29.84 in 10.0 mi West 12.7 mph - 0.00 in   Scattered Clouds
6:55 AM 46.4 °F 42.9 °F 39.2 °F 76% 29.82 in 10.0 mi WNW 6.9 mph - 0.00 in   Partly Cloudy
7:15 AM 46.4 °F 42.4 °F 39.2 °F 76% 29.82 in 10.0 mi NNW 8.1 mph - 0.00 in   Scattered Clouds
7:35 AM 48.2 °F - 39.2 °F 71% 29.82 in 10.0 mi NNW 5.8 mph - 0.00 in   Partly Cloudy
7:55 AM 46.4 °F 43.5 °F 39.2 °F 76% 29.82 in 10.0 mi NNW 5.8 mph - 0.00 in   Scattered Clouds
8:15 AM 46.4 °F 44.3 °F 39.2 °F 76% 29.83 in 10.0 mi WNW 4.6 mph - 0.00 in   Overcast
8:35 AM 46.4 °F 42.9 °F 39.2 °F 76% 29.84 in 10.0 mi NW 6.9 mph - 0.00 in   Overcast
8:55 AM 46.4 °F - 39.2 °F 76% 29.84 in 10.0 mi Calm Calm - 0.00 in   Overcast
9:15 AM 46.4 °F 44.3 °F 39.2 °F 76% 29.83 in 8.0 mi NW 4.6 mph - 0.00 in   Overcast
9:35 AM 46.4 °F 43.5 °F 39.2 °F 76% 29.84 in 5.0 mi West 5.8 mph - 0.00 in   Overcast
9:55 AM 46.4 °F 45.2 °F 41.0 °F 81% 29.85 in 8.0 mi West 3.5 mph - 0.00 in   Overcast
10:15 AM 48.2 °F - 39.2 °F 71% 29.86 in 5.0 mi NW 5.8 mph - 0.00 in   Overcast
10:35 AM 48.2 °F - 39.2 °F 71% 29.86 in 7.0 mi NNW 6.9 mph - 0.00 in   Mostly Cloudy
10:55 AM 48.2 °F - 41.0 °F 76% 29.87 in 6.0 mi North 8.1 mph - 0.00 in   Mostly Cloudy
11:15 AM 50.0 °F - 42.8 °F 76% 29.87 in 10.0 mi NNW 6.9 mph - 0.00 in   Mostly Cloudy
11:35 AM 50.0 °F - 41.0 °F 71% 29.87 in 10.0 mi NW 4.6 mph - 0.00 in   Overcast
11:55 AM 48.2 °F - 42.8 °F 82% 29.88 in 5.0 mi West 6.9 mph - 0.00 in   Overcast
12:15 PM 50.0 °F - 42.8 °F 76% 29.88 in 10.0 mi WSW 10.4 mph - 0.00 in   Mostly Cloudy
12:35 PM 51.8 °F - 42.8 °F 71% 29.88 in 10.0 mi West 8.1 mph - 0.00 in   Mostly Cloudy
12:55 PM 53.6 °F - 42.8 °F 67% 29.88 in 9.0 mi West 11.5 mph - 0.00 in   Scattered Clouds
1:15 PM - - - N/A% 29.87 in - WNW 9.2 mph - 0.00 in   Unknown
1:35 PM 57.2 °F - 39.2 °F 51% 29.87 in 9.0 mi West 9.2 mph 16.1 mph 0.00 in   Overcast
1:55 PM 57.2 °F - 39.2 °F 51% 29.88 in 10.0 mi WNW 11.5 mph - 0.00 in   Overcast
2:15 PM 57.2 °F - 37.4 °F 48% 29.87 in 10.0 mi WNW 11.5 mph - 0.00 in   Mostly Cloudy
2:35 PM 57.2 °F - 39.2 °F 51% 29.87 in 10.0 mi West 12.7 mph - 0.00 in   Partly Cloudy
2:55 PM 57.2 °F - 37.4 °F 48% 29.87 in 10.0 mi West 11.5 mph - 0.00 in   Clear
3:15 PM 59.0 °F - 37.4 °F 45% 29.87 in 10.0 mi WNW 11.5 mph - 0.00 in   Clear
3:35 PM 57.2 °F - 37.4 °F 48% 29.88 in 10.0 mi NW 11.5 mph - 0.00 in   Mostly Cloudy
3:55 PM 57.2 °F - 37.4 °F 48% 29.88 in 10.0 mi NW 10.4 mph - 0.00 in   Overcast
4:15 PM 57.2 °F - 37.4 °F 48% 29.88 in 10.0 mi NW 10.4 mph - 0.00 in   Overcast
4:35 PM 57.2 °F - 39.2 °F 51% 29.88 in 10.0 mi NW 9.2 mph - 0.00 in   Scattered Clouds
4:55 PM 57.2 °F - 39.2 °F 51% 29.89 in 10.0 mi NW 11.5 mph - 0.00 in   Clear
5:15 PM 57.2 °F - 39.2 °F 51% 29.89 in 10.0 mi NW 10.4 mph - 0.00 in   Clear
5:35 PM 55.4 °F - 37.4 °F 51% 29.89 in 10.0 mi WNW 9.2 mph 16.1 mph 0.00 in   Clear
5:55 PM 55.4 °F - 37.4 °F 51% 29.90 in 10.0 mi WNW 9.2 mph - 0.00 in   Clear
6:15 PM 53.6 °F - 37.4 °F 54% 29.91 in 10.0 mi WNW 8.1 mph - 0.00 in   Clear
6:35 PM 51.8 °F - 37.4 °F 58% 29.92 in 10.0 mi WNW 5.8 mph - 0.00 in   Clear
6:55 PM 48.2 °F - 37.4 °F 66% 29.92 in 10.0 mi West 5.8 mph - 0.00 in   Clear
7:15 PM 46.4 °F 42.9 °F 35.6 °F 66% 29.93 in 10.0 mi West 6.9 mph - 0.00 in   Clear
7:35 PM 44.6 °F 40.7 °F 35.6 °F 71% 29.93 in 10.0 mi West 6.9 mph - 0.00 in   Clear
7:55 PM 42.8 °F 39.3 °F 35.6 °F 76% 29.93 in 10.0 mi West 5.8 mph - 0.00 in   Clear
8:15 PM 42.8 °F 39.3 °F 35.6 °F 76% 29.93 in 10.0 mi West 5.8 mph - 0.00 in   Clear
8:35 PM 42.8 °F 38.6 °F 35.6 °F 76% 29.93 in 10.0 mi West 6.9 mph - 0.00 in   Clear
8:55 PM 39.2 °F 35.0 °F 33.8 °F 81% 29.93 in 10.0 mi West 5.8 mph - 0.00 in   Clear
9:15 PM 39.2 °F 37.0 °F 33.8 °F 81% 29.93 in 10.0 mi West 3.5 mph - 0.00 in   Clear
9:35 PM 39.2 °F 34.2 °F 33.8 °F 81% 29.93 in 10.0 mi West 6.9 mph - 0.00 in   Clear
9:55 PM 37.4 °F 32.1 °F 33.8 °F 87% 29.94 in 10.0 mi WSW 6.9 mph - 0.00 in   Partly Cloudy
10:15 PM 37.4 °F 31.4 °F 33.8 °F 87% 29.94 in 10.0 mi WSW 8.1 mph - 0.00 in   Mostly Cloudy
10:35 PM 37.4 °F 31.4 °F 35.6 °F 93% 29.94 in 10.0 mi WSW 8.1 mph - 0.00 in   Mostly Cloudy
10:55 PM 42.8 °F 38.0 °F 37.4 °F 81% 29.94 in 10.0 mi WSW 8.1 mph - 0.00 in   Overcast
11:15 PM 42.8 °F 38.0 °F 37.4 °F 81% 29.94 in 10.0 mi West 8.1 mph - 0.00 in   Mostly Cloudy
11:35 PM 42.8 °F 39.3 °F 37.4 °F 81% 29.94 in 10.0 mi WSW 5.8 mph - 0.00 in   Mostly Cloudy
11:55 PM 41.0 °F 36.4 °F 35.6 °F 81% 29.94 in 10.0 mi WSW 6.9 mph - 0.00 in   Mostly Cloudy